GW1009 Weather Reports


time (UTC)temp
C
wind
direction
speed
KPH
gust
KPH
rain 1hr
cm
rain 24hr
cm
rain mn
cm
humidity
%
barometer
mb
20260905123514 15 306 3.2 6.4 0.00 0.00 0.00 94 1011.4
20260905123014 15 304 3.2 8.0 0.00 0.00 0.00 94 1011.4
20260905122518 15 360 4.8 8.0 0.00 0.00 0.00 94 1011.3
20260905122012 14 303 3.2 8.0 0.00 0.00 0.00 94 1011.1
20260905121512 14 305 4.8 8.0 0.00 0.00 0.00 94 1011.1
20260905121012 14 304 4.8 9.7 0.00 0.00 0.00 94 1011.1
20260905120512 14 302 4.8 9.7 0.00 0.00 0.00 94 1011.0
20260905120012 14 277 6.4 12.9 0.00 0.00 0.00 94 1011.1
20260905115512 14 300 3.2 12.9 0.00 0.00 0.00 94 1011.2
20260905115012 14 294 3.2 11.3 0.00 0.00 0.00 94 1011.2
20260905114510 14 284 3.2 12.9 0.00 0.00 0.00 94 1011.1
20260905114009 14 319 4.8 12.9 0.00 0.00 0.00 94 1010.9
20260905113509 14 290 3.2 8.0 0.00 0.00 0.00 94 1010.9
20260905113012 14 300 3.2 8.0 0.00 0.00 0.00 94 1010.8
20260905112508 14 300 3.2 6.4 0.00 0.00 0.00 94 1010.8
20260905112010 14 306 0.0 3.2 0.00 0.00 0.00 94 1010.6
20260905111507 14 306 0.0 3.2 0.00 0.00 0.00 94 1010.5
20260905111007 14 306 0.0 9.7 0.00 0.00 0.00 94 1010.3
20260905110507 14 306 4.8 9.7 0.00 0.00 0.00 94 1010.2
20260905110007 14 300 1.6 4.8 0.00 0.00 0.00 94 1010.2
20260905105506 14 300 1.6 8.0 0.00 0.00 0.00 94 1010.0
20260905105007 14 299 3.2 8.0 0.00 0.00 0.00 94 1010.0
20260905104506 14 277 3.2 8.0 0.00 0.00 0.00 94 1009.9
20260905104006 14 312 4.8 8.0 0.00 0.00 0.00 94 1010.0
20260905103506 13 306 0.0 0.0 0.00 0.00 0.00 94 1010.0
20260905103008 13 306 0.0 0.0 0.00 0.00 0.00 93 1010.0
20260905102505 13 306 0.0 0.0 0.00 0.00 0.00 93 1010.0
20260905102004 14 306 0.0 0.0 0.00 0.00 0.00 93 1010.0
20260905101504 14 306 0.0 0.0 0.00 0.00 0.00 93 1009.9
20260905101003 14 306 0.0 0.0 0.00 0.00 0.00 93 1009.8
20260905100503 14 306 0.0 0.0 0.00 0.00 0.00 93 1009.7
20260905100003 14 306 0.0 0.0 0.00 0.00 0.00 93 1009.7
20260905095504 14 306 0.0 0.0 0.00 0.00 0.00 93 1009.8
20260905095004 14 306 0.0 0.0 0.00 0.00 0.00 93 1009.9
20260905094504 14 306 0.0 0.0 0.00 0.00 0.00 93 1009.9
20260905094002 14 306 0.0 0.0 0.00 0.00 0.00 93 1009.9
20260905093502 14 306 0.0 0.0 0.00 0.00 0.00 93 1009.9
20260905093001 14 306 0.0 0.0 0.00 0.00 0.00 93 1009.9
20260905092501 14 306 0.0 0.0 0.00 0.00 0.00 93 1009.9
20260905092059 14 306 0.0 0.0 0.00 0.00 0.00 92 1009.9
20260905091601 14 305 0.0 0.0 0.00 0.00 0.00 92 1009.8
20260905091058 14 304 0.0 0.0 0.00 0.00 0.00 92 1009.8
20260905090558 14 320 0.0 0.0 0.00 0.00 0.00 92 1009.7
20260905090058 14 320 0.0 0.0 0.00 0.00 0.00 92 1009.7
20260905085558 14 320 0.0 0.0 0.00 0.00 0.00 92 1009.8
20260905085058 14 329 0.0 0.0 0.00 0.00 0.00 92 1009.9
20260905084656 14 329 0.0 0.0 0.00 0.00 0.00 92 1009.9
20260905084056 14 329 0.0 0.0 0.00 0.00 0.00 91 1009.8
20260905083556 14 329 0.0 0.0 0.00 0.00 0.00 91 1009.9
20260905083055 15 329 0.0 0.0 0.00 0.00 0.00 91 1009.9
20260905082554 15 329 0.0 0.0 0.00 0.00 0.00 91 1010.0
20260905082053 15 329 0.0 0.0 0.00 0.00 0.00 91 1010.0
20260905081553 15 329 0.0 0.0 0.00 0.00 0.00 91 1010.0
20260905081052 15 329 0.0 0.0 0.00 0.00 0.00 91 1010.0
20260905080552 15 329 0.0 0.0 0.00 0.00 0.00 91 1010.0
20260905080054 15 329 0.0 0.0 0.00 0.00 0.00 91 1010.0
20260905075554 15 329 0.0 0.0 0.00 0.00 0.00 91 1010.1
20260905075054 15 329 0.0 0.0 0.00 0.00 0.00 91 1010.1
20260905074557 15 329 0.0 0.0 0.00 0.00 0.00 91 1010.1
20260905074052 15 329 0.0 0.0 0.00 0.00 0.00 91 1010.0
20260905073551 15 329 0.0 0.0 0.00 0.00 0.00 90 1010.0
20260905073101 15 329 0.0 0.0 0.00 0.00 0.00 91 1010.0
20260905072551 15 297 0.0 0.0 0.00 0.00 0.00 90 1010.0
20260905072049 15 279 0.0 0.0 0.00 0.00 0.00 90 1010.0
20260905071550 15 279 0.0 0.0 0.00 0.00 0.00 90 1010.1
20260905071052 15 276 0.0 0.0 0.00 0.00 0.00 90 1010.1
20260905070553 15 275 0.0 0.0 0.00 0.00 0.00 90 1010.2
20260905070049 15 256 0.0 0.0 0.00 0.00 0.00 90 1010.1
20260905065550 15 256 0.0 0.0 0.00 0.00 0.00 90 1010.1
20260905065050 15 270 0.0 0.0 0.00 0.00 0.00 90 1010.2
20260905064547 15 270 0.0 0.0 0.00 0.00 0.00 90 1010.3
20260905064049 15 270 0.0 0.0 0.00 0.00 0.00 90 1010.4
20260905063547 15 270 0.0 0.0 0.00 0.00 0.00 89 1010.3
20260905063046 15 270 0.0 0.0 0.00 0.00 0.00 89 1010.3
20260905062547 15 270 0.0 0.0 0.00 0.00 0.00 89 1010.4
20260905062048 15 270 0.0 0.0 0.00 0.00 0.00 88 1010.4
20260905061545 15 270 0.0 0.0 0.00 0.00 0.00 88 1010.4
20260905061048 15 270 0.0 0.0 0.00 0.00 0.00 88 1010.4
20260905060549 15 270 0.0 0.0 0.00 0.00 0.00 87 1010.3
20260905060046 15 270 0.0 0.0 0.00 0.00 0.00 87 1010.4
20260905055543 15 270 0.0 0.0 0.00 0.00 0.00 87 1010.4
20260905055043 15 270 0.0 0.0 0.00 0.00 0.00 86 1010.5
20260905054546 15 270 0.0 0.0 0.00 0.00 0.00 86 1010.6
20260905054042 15 270 0.0 0.0 0.00 0.00 0.00 86 1010.5
20260905053542 15 270 0.0 0.0 0.00 0.00 0.00 86 1010.6
20260905053100 15 270 0.0 0.0 0.00 0.00 0.00 86 1010.7
20260905052541 15 312 0.0 0.0 0.00 0.00 0.00 86 1010.7
20260905052040 15 251 0.0 0.0 0.00 0.00 0.00 86 1010.7
20260905051539 15 251 0.0 0.0 0.00 0.00 0.00 86 1010.7
20260905051039 15 293 0.0 0.0 0.00 0.00 0.00 86 1010.8
20260905050539 15 293 0.0 0.0 0.00 0.00 0.00 86 1010.8
20260905050039 15 293 0.0 0.0 0.00 0.00 0.00 86 1010.8
20260905045540 15 293 0.0 0.0 0.00 0.00 0.00 87 1010.8
20260905045038 15 293 0.0 0.0 0.00 0.00 0.00 87 1010.8
20260905044538 15 293 0.0 0.0 0.00 0.00 0.00 87 1010.8
20260905044037 15 293 0.0 0.0 0.00 0.00 0.00 87 1010.9
20260905043537 15 293 0.0 0.0 0.00 0.00 0.00 87 1010.9
20260905043037 15 293 0.0 0.0 0.00 0.00 0.00 87 1010.9
20260905042538 15 292 0.0 0.0 0.00 0.00 0.00 88 1010.9
20260905042034 15 294 0.0 0.0 0.00 0.00 0.00 88 1010.9
20260905041532 15 294 0.0 0.0 0.00 0.00 0.00 88 1010.9
20260905041032 15 293 0.0 0.0 0.00 0.00 0.00 88 1010.9
20260905040534 15 293 0.0 0.0 0.00 0.00 0.00 89 1010.9
20260905040030 15 293 0.0 0.0 0.00 0.00 0.00 89 1010.9
20260905035531 15 293 0.0 0.0 0.00 0.00 0.00 89 1011.0
20260905035031 15 293 0.0 0.0 0.00 0.00 0.00 89 1011.0
20260905034530 15 293 0.0 0.0 0.00 0.00 0.00 89 1010.9
20260905034029 15 293 0.0 0.0 0.00 0.00 0.00 89 1010.9
20260905033531 15 293 0.0 0.0 0.00 0.00 0.00 88 1010.9
20260905033041 15 293 0.0 0.0 0.00 0.00 0.00 88 1010.9
20260905032528 15 293 0.0 0.0 0.00 0.00 0.00 88 1010.9
20260905032028 15 293 0.0 0.0 0.00 0.00 0.00 87 1010.9
20260905031529 15 293 0.0 0.0 0.00 0.00 0.00 87 1010.8
20260905031032 15 293 0.0 0.0 0.00 0.00 0.00 86 1010.8
20260905030528 15 293 0.0 0.0 0.00 0.00 0.00 86 1010.8
20260905030028 15 293 0.0 0.0 0.00 0.00 0.00 86 1010.8
20260905025531 15 293 0.0 0.0 0.00 0.00 0.00 86 1010.8
20260905025028 15 293 0.0 0.0 0.00 0.00 0.00 86 1010.9
20260905024528 15 293 0.0 0.0 0.00 0.00 0.00 87 1010.9
20260905024031 15 293 0.0 0.0 0.00 0.00 0.00 87 1011.0
20260905023527 15 293 0.0 0.0 0.00 0.00 0.00 87 1011.1
20260905023028 15 293 0.0 0.0 0.00 0.00 0.00 87 1011.1
20260905022527 15 293 0.0 0.0 0.00 0.00 0.00 88 1011.1
20260905022027 15 293 0.0 0.0 0.00 0.00 0.00 88 1011.2
20260905021534 15 293 0.0 0.0 0.00 0.00 0.00 88 1011.2
20260905021028 15 293 0.0 0.0 0.00 0.00 0.00 87 1011.3
20260905020526 15 293 0.0 0.0 0.00 0.00 0.00 87 1011.3
20260905020029 15 293 0.0 0.0 0.00 0.00 0.00 87 1011.3
20260905015525 15 293 0.0 0.0 0.00 0.00 0.00 87 1011.2
20260905015030 15 293 0.0 0.0 0.00 0.00 0.00 87 1011.3
20260905014526 15 293 0.0 0.0 0.00 0.00 0.00 87 1011.4
20260905014024 15 293 0.0 0.0 0.00 0.00 0.00 86 1011.3
20260905013525 15 293 0.0 0.0 0.00 0.00 0.00 86 1011.4
20260905013023 15 293 0.0 0.0 0.00 0.00 0.00 85 1011.4
20260905012524 15 293 0.0 0.0 0.00 0.00 0.00 85 1011.4
20260905012022 15 294 0.0 3.2 0.00 0.00 0.00 84 1011.4
20260905011523 15 294 0.0 3.2 0.00 0.00 0.00 84 1011.3
20260905011022 15 294 0.0 0.0 0.00 0.00 0.00 84 1011.3
20260905010524 15 294 0.0 0.0 0.00 0.00 0.00 83 1011.2
20260905010021 15 294 0.0 0.0 0.00 0.00 0.00 82 1011.3
20260905005522 15 294 0.0 0.0 0.00 0.00 0.00 82 1011.4
20260905005022 15 294 0.0 0.0 0.00 0.00 0.00 82 1011.3
20260905004524 16 294 0.0 0.0 0.00 0.00 0.00 81 1011.2
20260905004021 16 294 0.0 0.0 0.00 0.00 0.00 81 1011.2
20260905003524 16 294 0.0 0.0 0.00 0.00 0.00 81 1011.2
20260905003021 16 294 0.0 0.0 0.00 0.00 0.00 78 1011.1
20260905002521 16 294 0.0 0.0 0.00 0.00 0.00 78 1011.1
20260905002021 16 294 0.0 0.0 0.00 0.00 0.00 77 1011.1
20260905001521 17 294 0.0 1.6 0.00 0.00 0.00 76 1011.0
20260905001020 17 294 0.0 1.6 0.00 0.00 0.00 75 1011.1
20260905000520 17 294 0.0 3.2 0.00 0.00 0.00 73 1010.9
20260905000020 17 293 0.0 1.6 0.00 0.00 0.00 73 1010.9
20260904235519 17 360 0.0 1.6 0.00 0.00 0.00 71 1010.9
20260904235019 17 293 0.0 4.8 0.00 0.00 0.00 71 1011.0
20260904234519 18 293 0.0 6.4 0.00 0.00 0.00 70 1010.9
20260904234019 18 293 1.6 9.7 0.00 0.00 0.00 69 1010.9
20260904233519 18 284 0.0 9.7 0.00 0.00 0.00 69 1010.9
20260904233020 18 286 0.0 4.8 0.00 0.00 0.00 69 1010.9
20260904232521 18 305 0.0 4.8 0.00 0.00 0.00 68 1010.8
20260904232018 18 306 1.6 8.0 0.00 0.00 0.00 67 1010.8
20260904231522 18 306 3.2 11.3 0.00 0.00 0.00 66 1010.9
20260904231018 18 294 4.8 11.3 0.00 0.00 0.00 66 1010.7
20260904230518 19 298 4.8 12.9 0.00 0.00 0.00 66 1010.8
20260904230021 19 307 4.8 14.5 0.00 0.00 0.00 66 1010.8
20260904225518 19 300 6.4 14.5 0.00 0.00 0.00 65 1010.8
20260904225018 19 304 6.4 12.9 0.00 0.00 0.00 65 1010.8
20260904224517 19 294 6.4 12.9 0.00 0.00 0.00 65 1010.7
20260904224017 19 291 4.8 12.9 0.00 0.00 0.00 65 1010.7
20260904223518 20 253 3.2 16.1 0.00 0.00 0.00 64 1010.7
20260904223023 20 286 3.2 16.1 0.00 0.00 0.00 63 1010.6
20260904222520 20 278 4.8 14.5 0.00 0.00 0.00 64 1010.6
20260904222015 20 294 6.4 14.5 0.00 0.00 0.00 63 1010.7
20260904221515 20 285 6.4 14.5 0.00 0.00 0.00 63 1010.7
20260904221015 20 325 4.8 14.5 0.00 0.00 0.00 64 1010.6
20260904220518 20 299 9.7 16.1 0.00 0.00 0.00 64 1010.6
20260904220015 20 309 8.0 16.1 0.00 0.00 0.00 64 1010.5
20260904215515 20 311 8.0 19.3 0.00 0.00 0.00 63 1010.5
20260904215017 20 311 9.7 19.3 0.00 0.00 0.00 62 1010.5
20260904214518 20 307 9.7 24.1 0.00 0.00 0.00 62 1010.6
20260904214013 21 293 12.9 27.4 0.00 0.00 0.00 61 1010.5
20260904213514 21 299 12.9 24.1 0.00 0.00 0.00 59 1010.6
20260904213025 21 304 11.3 25.7 0.00 0.00 0.00 58 1010.5
20260904212516 21 317 14.5 27.4 0.00 0.00 0.00 56 1010.5
20260904212012 21 285 11.3 29.0 0.00 0.00 0.00 56 1010.5
20260904211518 21 288 14.5 29.0 0.00 0.00 0.00 54 1010.6
20260904211012 21 311 11.3 29.0 0.00 0.00 0.00 55 1010.5
20260904210512 21 310 14.5 25.7 0.00 0.00 0.00 54 1010.6
20260904210023 21 300 9.7 22.5 0.00 0.00 0.00 56 1010.6
20260904205512 21 309 11.3 24.1 0.00 0.00 0.00 56 1010.6
20260904205011 21 306 16.1 24.1 0.00 0.00 0.00 56 1010.6
20260904204520 21 290 12.9 25.7 0.00 0.00 0.00 57 1010.7
20260904204011 21 286 14.5 29.0 0.00 0.00 0.00 56 1010.7
20260904203511 21 277 9.7 25.7 0.00 0.00 0.00 57 1010.7
20260904203011 21 281 12.9 25.7 0.00 0.00 0.00 56 1010.7
20260904202515 21 286 11.3 27.4 0.00 0.00 0.00 55 1010.8
20260904202012 22 285 16.1 27.4 0.00 0.00 0.00 53 1010.9
20260904201510 22 309 14.5 32.2 0.00 0.00 0.00 55 1010.8
20260904201010 22 311 16.1 27.4 0.00 0.00 0.00 53 1010.8
20260904200515 22 302 14.5 27.4 0.00 0.00 0.00 56 1010.9
20260904200009 22 315 14.5 27.4 0.00 0.00 0.00 55 1010.9
20260904195509 22 283 14.5 24.1 0.00 0.00 0.00 56 1010.9
20260904195008 22 325 12.9 25.7 0.00 0.00 0.00 54 1010.9
20260904194508 22 288 11.3 27.4 0.00 0.00 0.00 54 1010.9
20260904194008 22 274 14.5 24.1 0.00 0.00 0.00 57 1010.9
20260904193508 22 255 11.3 22.5 0.00 0.00 0.00 55 1011.0
20260904193008 21 295 9.7 27.4 0.00 0.00 0.00 57 1010.9
20260904192508 22 316 14.5 27.4 0.00 0.00 0.00 56 1010.9
20260904192007 22 305 14.5 25.7 0.00 0.00 0.00 57 1011.0
20260904191510 22 326 9.7 24.1 0.00 0.00 0.00 55 1011.0
20260904191007 22 292 9.7 25.7 0.00 0.00 0.00 56 1010.9
20260904190507 22 286 14.5 25.7 0.00 0.00 0.00 55 1010.9
20260904190007 22 318 11.3 32.2 0.00 0.00 0.00 58 1010.9
20260904185506 22 305 16.1 32.2 0.00 0.00 0.00 54 1010.9
20260904185006 22 290 12.9 25.7 0.00 0.00 0.00 54 1011.0
20260904184506 22 284 16.1 33.8 0.00 0.00 0.00 53 1011.0
20260904184006 22 282 11.3 33.8 0.00 0.00 0.00 56 1011.1
20260904183506 22 292 11.3 29.0 0.00 0.00 0.00 56 1011.2
20260904183005 22 294 14.5 29.0 0.00 0.00 0.00 56 1011.1
20260904182505 22 278 16.1 27.4 0.00 0.00 0.00 55 1011.0
20260904182004 22 321 12.9 22.5 0.00 0.00 0.00 56 1011.0
20260904181504 22 276 11.3 30.6 0.00 0.00 0.00 56 1011.2
20260904181006 22 296 17.7 30.6 0.00 0.00 0.00 55 1011.1
20260904180506 22 277 12.9 27.4 0.00 0.00 0.00 57 1011.2
20260904180003 22 289 12.9 27.4 0.00 0.00 0.00 59 1011.3
20260904175503 22 279 12.9 29.0 0.00 0.00 0.00 59 1011.3
20260904175005 22 319 12.9 32.2 0.00 0.00 0.00 57 1011.1
20260904174502 22 313 19.3 32.2 0.00 0.00 0.00 61 1011.3
20260904174000 22 305 11.3 20.9 0.00 0.00 0.00 62 1011.2
20260904173501 22 281 11.3 20.9 0.00 0.00 0.00 61 1011.3
20260904173127 22 211 11.3 25.7 0.00 0.00 0.00 63 1011.4
20260904172600 22 289 14.5 25.7 0.00 0.00 0.00 63 1011.3
20260904172100 22 289 11.3 24.1 0.00 0.00 0.00 62 1011.4
20260904171609 21 338 14.5 24.1 0.00 0.00 0.00 63 1011.5
20260904171101 21 295 11.3 20.9 0.00 0.00 0.00 63 1011.5
20260904170600 21 300 12.9 22.5 0.00 0.00 0.00 62 1011.5
20260904170059 21 327 11.3 25.7 0.00 0.00 0.00 64 1011.6
20260904165558 21 302 17.7 25.7 0.00 0.00 0.00 62 1011.6
20260904165058 21 308 14.5 24.1 0.00 0.00 0.00 63 1011.7
20260904164559 21 302 16.1 24.1 0.00 0.00 0.00 62 1011.5
20260904164057 21 311 6.4 22.5 0.00 0.00 0.00 61 1011.4
20260904163556 21 317 11.3 27.4 0.00 0.00 0.00 64 1011.4
20260904163056 21 313 14.5 27.4 0.00 0.00 0.00 62 1011.5
20260904162556 21 302 12.9 25.7 0.00 0.00 0.00 62 1011.6
20260904162058 21 311 9.7 22.5 0.00 0.00 0.00 63 1011.5
20260904161556 21 309 11.3 24.1 0.00 0.00 0.00 63 1011.5
20260904161055 21 338 17.7 24.1 0.00 0.00 0.00 59 1011.5
20260904160554 22 315 9.7 22.5 0.00 0.00 0.00 63 1011.5
20260904160054 22 306 14.5 22.5 0.00 0.00 0.00 63 1011.4
20260904155553 21 328 8.0 24.1 0.00 0.00 0.00 65 1011.6
20260904155052 21 300 14.5 24.1 0.00 0.00 0.00 64 1011.6
20260904154552 21 315 16.1 24.1 0.00 0.00 0.00 63 1011.8
20260904154055 21 257 9.7 22.5 0.00 0.00 0.00 62 1011.7
20260904153551 21 290 12.9 22.5 0.00 0.00 0.00 65 1011.9
20260904153050 21 275 8.0 22.5 0.00 0.00 0.00 66 1011.8
20260904152552 21 301 11.3 22.5 0.00 0.00 0.00 65 1011.9
20260904152050 21 320 8.0 20.9 0.00 0.00 0.00 67 1011.9
20260904151549 21 294 12.9 22.5 0.00 0.00 0.00 67 1011.9
20260904151049 21 323 11.3 24.1 0.00 0.00 0.00 68 1011.9
20260904150547 21 327 14.5 24.1 0.00 0.00 0.00 69 1011.9
20260904150104 20 310 11.3 19.3 0.00 0.00 0.00 70 1011.8
20260904145547 20 313 9.7 19.3 0.00 0.00 0.00 71 1011.8
20260904145046 20 319 12.9 19.3 0.00 0.00 0.00 71 1011.9
20260904144545 20 300 9.7 19.3 0.00 0.00 0.00 71 1011.9
20260904144045 20 264 4.8 19.3 0.00 0.00 0.00 75 1012.1
20260904143544 20 311 9.7 19.3 0.00 0.00 0.00 71 1012.1
20260904143044 20 306 8.0 19.3 0.00 0.00 0.00 75 1012.0
20260904142543 20 283 6.4 19.3 0.00 0.00 0.00 77 1012.1
20260904142042 20 331 6.4 16.1 0.00 0.00 0.00 76 1012.0
20260904141545 19 324 6.4 17.7 0.00 0.00 0.00 77 1012.2
20260904141040 19 302 8.0 14.5 0.00 0.00 0.00 77 1012.2
20260904140541 19 292 8.0 19.3 0.00 0.00 0.00 78 1012.2
20260904140041 19 280 9.7 19.3 0.00 0.00 0.00 77 1012.1
20260904135539 20 284 8.0 20.9 0.00 0.00 0.00 76 1012.1
20260904135037 19 296 11.3 20.9 0.00 0.00 0.00 77 1011.9
20260904134546 19 304 3.2 14.5 0.00 0.00 0.00 81 1011.9
20260904134034 18 321 8.0 14.5 0.00 0.00 0.00 83 1011.7
20260904133533 18 284 6.4 16.1 0.00 0.00 0.00 83 1011.9
20260904133033 18 292 6.4 16.1 0.00 0.00 0.00 85 1011.7
20260904132535 18 263 3.2 11.3 0.00 0.00 0.00 86 1011.7
20260904132032 18 306 3.2 8.0 0.00 0.00 0.00 87 1011.6
20260904131529 18 294 4.8 11.3 0.00 0.00 0.00 87 1011.8
20260904131029 18 286 4.8 14.5 0.00 0.00 0.00 87 1011.8
20260904130533 18 305 8.0 16.1 0.00 0.00 0.00 86 1011.9
20260904130034 18 282 8.0 16.1 0.00 0.00 0.00 87 1011.7
20260904125527 18 311 8.0 16.1 0.00 0.00 0.00 89 1011.8
20260904125026 18 317 3.2 12.9 0.00 0.00 0.00 90 1011.7
20260904124525 18 292 4.8 12.9 0.00 0.00 0.00 91 1011.8
20260904124029 18 312 6.4 0.0 0.00 0.00 0.00 92 1011.9